601  
ASUS41 KOKX 240708  
RWROKX  
 
REGIONAL WEATHER ROUNDUP  
NATIONAL WEATHER SERVICE NEW YORK NY  
300 AM EDT SUN MAY 24 2015  
 
NOTE: "FAIR" INDICATES FEW OR NO CLOUDS BELOW 12,000 FEET WITH NO  
SIGNIFICANT WEATHER AND/OR S TO VISIBILITY
.  
 
NYZ071-072-176-178-NJZ106-104-240800-  
NEW YORK CITY METRO AREA  
 
 
CITY SKY/WX TMP DP RH WIND PRES REMARKS
 
CENTRAL PARK CLEAR 58 35 42 VRB6 30.38R  
LAGUARDIA APRT CLEAR 58 39 49 SW7 30.35R  
KENNEDY INTL CLEAR 54 45 71 SW9 30.37R  
NEWARK/LIBERTY CLEAR 51 39 63 SW7 30.36R  
BRNX BOT. GARD N/A 57 37 47 SW7 30.37R  
TETERBORO CLEAR 51 40 65 S3 30.34S  

 
 
NYZ177-179-078>081-240800-  
LONG ISLAND NEW YORK  
 
CITY SKY/WX TMP DP RH WIND PRES REMARKS
 
FARMINGDALE CLEAR 53 47 79 SW6 30.36R  
ISLIP CLEAR 52 48 86 SW6 30.34R  
SHIRLEY CLEAR 55 50 83 SW8 30.36R  
WESTHAMPTON CLEAR 53 50 89 SW9 30.36S  
MONTAUK POINT N/A 53 47 79 SW8 30.35S  

 
 
NYZ052-065-067-240800-  
HUDSON VALLEY  
 
CITY SKY/WX TMP DP RH WIND PRES REMARKS
 
WHITE PLAINS CLEAR 51 42 71 W5 30.34R  
NEWBURGH CLEAR 52 36 54 CALM 30.34  
MONTGOMERY CLEAR 43 38 82 CALM 30.33R  
POUGHKEEPSIE CLEAR 42 37 82 CALM 30.33R  
ALBANY PTCLDY 46 33 60 S5 30.29S  

 
 
NJZ001-105-106-008-010-013-015-019>022-104-240800-  
NEW JERSEY  
 
CITY SKY/WX TMP DP RH WIND PRES REMARKS
 
NEWARK/LIBERTY CLEAR 51 39 63 SW7 30.36R  
TETERBORO CLEAR 51 40 65 S3 30.34S  
CALDWELL CLEAR 47 36 65 CALM 30.36R  
MORRISTOWN CLEAR 41 36 81 CALM 30.36S  
SOMERVILLE CLEAR 39 36 89 CALM 30.35S  
SUSSEX CLEAR 39 35 86 CALM 30.37R  
ANDOVER N/A 43 39 86 S3 30.36R  
TRENTON CLEAR 48 37 65 CALM 30.37S  
MILLVILLE CLEAR 45 43 93 CALM 30.39S  
ATLANTIC CITY CLEAR 51 47 86 SW5 30.39S  
WRIGHTSTOWN CLEAR 48 47 99 SW3 30.36S  
TOMS RIVER CLEAR N/A N/A N/A SW3 30.38S  
BELMAR CLEAR 48 41 76 SW6 30.38S  

 
 
PAZ047>061-062-071-240800-  
EASTERN PENNSYLVANIA  
 
CITY SKY/WX TMP DP RH WIND PRES REMARKS
 
PHILADELPHIA PTCLDY 55 46 71 S8 30.39R  
ALLENTOWN CLEAR 43 36 76 CALM 30.37R  
SCRANTON CLEAR 44 34 67 CALM 30.35R  

 
 
CTZ002-004>006-009-010-012-RIZ004-006-007-MAZ004-011-015-240800-  
SOUTHERN NEW ENGLAND  
IN CT  
 
CITY SKY/WX TMP DP RH WIND PRES REMARKS
 
BRADLEY INTL CLEAR 48 40 73 S6 30.30S  
HARTFORD CLEAR 50 43 77 S7 30.32S  
DANBURY CLEAR 42 36 79 CALM 30.35R  
WTRBRY/OXFORD CLEAR 48 39 71 CALM 30.34S  
BRIDGEPORT CLEAR 53 49 86 W3 30.34R  
MERIDEN CLEAR 43 39 86 CALM 30.33S  
NEW HAVEN CLEAR 52 48 86 CALM 30.34S  
CHESTER FAIR 48 46 93 SW7 30.33F  
GROTON CLEAR 50 47 89 W5 30.33F  
WILLIMANTIC CLEAR 42 38 85 NE3 30.32S  
 
IN RI  
 
CITY SKY/WX TMP DP RH WIND PRES REMARKS
 
PROVIDENCE CLEAR 49 42 77 SW8 30.32S  
BLOCK ISLAND CLEAR 52 45 76 SW12 30.34F  
WESTERLY CLEAR 52 47 83 SW3 30.34S  
 
IN MA  
 
CITY SKY/WX TMP DP RH WIND PRES REMARKS
 
BOSTON PTCLDY 51 38 60 SW14 30.27F  
WORCESTER CLEAR 48 34 58 W17 30.27F  
WESTFIELD NOT AVBL  
PROVINCETOWN CLEAR 52 41 66 SW13 30.30R  
NANTUCKET CLEAR 52 47 83 SW15 30.34S  

 
 
ANZ330-335-338-340-345-350-353-355-240800-  
COASTAL MARINE OBSERVATIONS  
 
 
STATION/POSITION TIME SKY/WX TEMP WIND PRES VSBY WAVE
 
AIR SEA DIR/SP/G HT/PER  
(UTC) (F) (DEG/KT/KT) (MB) (MI) (FT/S)  
NY HARB ENTRANCE 0650 55 54 230/ 12/ 16 1027.9 2/ 4  
4S FIRE IS 0603 54 N/A 4/ 5  
20S FIRE ISLAND 0650 55 55 230/ 14/ 16 1028.1 3/ 5  
GREAT SOUTH BAY 0600 57 62 250/ 14/ 16 N/A  
23SW MTP 0650 54 52 230/ 16/ 17 1027.5 3/ 5  
HUDSON CANYON NOT AVBL  
KINGS POINT 0600 55 54 180/ 5/ 7 N/A  
CENTRAL LI SOUND 0600 54 51 220/ 10/ 12 N/A  
EASTERN LI SOUND 0600 52 270/ 4/ 8 N/A  
ROBBINS REEF 0600 56 260/ 10/ 12 N/A  

 
 
>>>>>>>>>>>>>>>>>>>>>>>>>>>> KEY <<<<<<<<<<<<<<<<<<<<<<<<<<<  
> <  
> SKY/WX - SKY CONDITION/PRESENT WEATHER <  
> TMP - TEMPERATURE IN FAHRENHEIT <  
> DP - DEWPOINT IN FAHRENHEIT <  
> RH - RELATIVE HUMIDITY IN PERCENT <  
> WIND - DIRECTION AND SPEED IN MPH <  
> PRES - MEAN SEA LEVEL PRESSURE IN INCHES OF HG <  
> WCI - WIND CHILL INDEX <  
> VSB - VISIBILITY IN MILES <  
> HX - HEAT INDEX <  
> TC - TEMPERATURE IN CELSIUS <  
> VRB - VARIABLE WIND DIRECTION <  
> <  
>>>>>>>>>>>>>>>>>>>>>>>>>>>> KEY <<<<<<<<<<<<<<<<<<<<<<<<<<<  
 
CLICK HERE TO GO TO PREVIOUS BULLETINS.

The Nexlab NY Page
The Nexlab NJ Page
The Nexlab CT Page Main Text Page